GOES 14 [S]

Last updated on Sept. 9, 2020, 5:41 a.m. UTC

1 35491U 09033A   20252.57645145 -.00000094  00000-0  00000-0 0  9999
2 35491   0.3995 271.3260 0013105 301.2908 238.5272  1.00273598 40989
UTC
Height (km)
Latitude
Longitude
Inclination
Orbital Period
UTC large
Height (km)
Speed (km/s)
/
Latitude / Longitude
Inclination (degrees)
Orbital Period (minutes)
Azimuth
Elevation
Range (km)
Doppler Factor
iOS Compass Heading
iOS Angle